SCP
0 0 0 0 0 0 -0 -0 0 0 0 -0 0 -0 -0 -0 -0 0 0 0 -0 -0 -0 -0 -0 -0 -0 -0 -0 -0 -0 -0 -0 -0 -0 -0 -0 -0 -0 -0 -0 -0 -0 -0 -0 -0 -0 -0 -0
0 0 0 0 0 0 -0 -0 0 0 -0 0 -0 0 0 -0 -0 0 0 0 -0 -0 -0 -0 -0 -0 -0 -0 -0 -0 -0 -0 -0 -0 -0 -0 -0 -0 -0 -0 -0 -0 -0 -0 -0 -0 -0 -0 -0
0 0 0 0 0 -0 -0 -0 -0 -0 0 0 0 -0 -0 0 0 0 -0 -0 -0 -0 -0 -0 -0 -0 -0 -0 -0 -0 -0 -0 -0 -0 -0 -0 -0 -0 -0 -0 -0 -0 -0 -0 -0 -0 -0 -0 -0
0 0 0 0 -0 0 -0 -0 -0 -0 0 -0 -0 0 0 -0 0 -0 -0 -0 0 -0 -0 -0 -0 -0 -0 -0 -0 -0 -0 -0 -0 -0 -0 -0 -0 -0 -0 -0 -0 -0 -0 -0 -0 -0 -0 -0 -0
0 0 0 -0 -0 0 -0 -0 -0 -0 -0 -0 -0 -0 -0 0 -0 -0 -0 -0 0 0 -0 -0 -0 -0 -0 -0 -0 -0 -0 -0 -0 -0 -0 -0 -0 -0 -0 -0 -0 -0 -0 -0 -0 -0 -0 -0 -0
0 0 0 0 0 -0 0 0 0 -0 -0 -0 -0 -0 -0 -0 -0 -0 -0 -0 -0 -0 -0 -0 0 -0 -0 -0 -0 -0 -0 -0 -0 -0 -0 -0 -0 -0 -0 -0 -0 -0 -0 -0 -0 -0 -0 -0 -0
0 0 0 0 0 -0 -0 0 0 0 -0 -0 0 0 -0 -0 -0 -0 0 0 0 -0 -0 0 0 0 -0 -0 -0 -0 -0 -0 -0 -0 -0 -0 -0 -0 -0 -0 -0 -0 -0 -0 -0 -0 -0 -0 -0
0 0 0 0 0 0 0 0 0 0 0 0 0 0 -0 -0 -0 0 0 0 0 0 0 0 0 0 0 0 -0 -0 -0 -0 -0 -0 -0 -0 -0 -0 -0 -0 -0 -0 -0 -0 -0 -0 -0 -0 -0
0 0 0 0 0 0 0 0 0 0 0 0 0 0 0 -0 -0 0 0 0 0 0 0 0 0 0 0 0 0 0 -0 0 -0 -0 -0 0 0 0 0 0 -0 -0 -0 -0 -0 -0 -0 0 -0
0 0 0 0 0 0 0 0 0 0 0 0 0 0 0 -0 -0 0 0 0 0 0 0 0 0 0 0 0 0 0 0 0 0 0 0 0 0 0 0 0 0 -0 0 -0 -0 0 0 0 0
0 0 0 0 0 0 0 0 0 0 0 0 -0 -0 -0 0 -0 0 0 0 0 0 0 0 0 0 0 0 0 0 0 0 0 0 0 0 0 0 0 0 0 0 0 0 0 0 0 0 0
0 0 0 0 0 0 0 0 0 0 0 0 0 0 -0 -0 0 0 0 0 0 0 0 0 0 0 0 0 0 0 0 0 0 0 0 0 0 0 0 0 0 0 0 0 0 0 0 0 0
0 0 0 0 0 0 0 0 0 0 0 -0 0 0 -0 0 0 0 0 0 0 0 0 0 0 0 0 0 0 0 0 0 0 0 0 0 0 0 0 0 0 0 0 0 0 0 0 0 0
0 0 0 0 0 0 0 0 0 0 0 -0 0 0 0 0 0 0 0 0 0 0 0 0 0 0 0 0 0 0 0 0 0 0 0 0 0 0 0 0 0 0 0 0 0 0 0 0 0
0 0 0 0 0 0 0 0 0 0 0 0 0 0 0 0 0 0 0 0 0 0 0 0 0 0 0 0 0 0 0 0 0 0 0 0 0 0 0 0 0 0 0 0 0 0 0 0 0
0 0 0 0 0 0 0 0 0 0 0 0 0 0 0 0 0 0 0 0 0 0 0 0 0 0 0 0 0 0 0 0 0 0 0 0 0 0 0 0 0 0 0 0 0 0 0 0 0
0 0 0 0 0 0 0 0 0 0 0 0 0 0 0 0 0 0 0 0 0 0 0 0 0 0 0 0 0 0 0 0 0 0 0 0 0 0 0 0 0 0 0 0 0 0 0 0 0
0 0 0 0 0 0 0 0 0 0 0 0 0 0 0 0 0 0 0 0 0 0 0 0 0 0 0 0 0 0 0 0 0 0 0 0 0 0 0 0 0 0 0 0 0 0 0 0 0
0 0 0 0 0 0 -0 0 0 0 0 0 0 0 0 0 0 0 0 0 0 0 0 0 0 0 0 0 0 0 0 0 0 0 0 0 0 0 0 0 0 0 0 0 0 0 0 0 0
0 0 0 0 0 0 -0 0 0 0 0 0 0 0 0 0 0 0 0 0 0 0 0 0 0 0 0 0 0 0 0 0 0 0 0 0 0 0 0 0 0 0 0 0 0 0 0 0 0
0 0 0 0 0 0 0 -0 -0 0 0 0 0 0 0 0 0 0 0 0 0 0 0 0 0 0 0 0 0 0 0 0 0 0 0 0 0 0 0 0 0 0 0 0 0 0 0 0 0
0 0 0 0 0 0 0 -0 0 0 0 0 0 0 0 0 0 0 0 0 0 0 0 0 0 0 0 0 0 0 0 0 0 0 0 0 0 0 0 0 0 0 0 0 0 0 0 0 0
0 0 0 0 0 0 0 0 -0 -0 0 0 0 0 0 0 0 0 0 0 0 0 0 0 0 0 0 0 0 0 0 0 0 0 0 0 0 0 0 0 0 0 0 0 0 0 0 0 0
0 0 0 0 0 0 0 0 -0 0 0 0 0 0 0 0 0 0 0 0 0 0 0 0 0 0 0 0 0 0 0 0 0 0 0 0 0 0 0 0 0 0 0 0 0 0 0 0 0
0 0 0 0 0 0 0 0 0 0 0 0 0 0 0 0 0 0 0 0 0 0 0 0 0 0 0 0 0 0 0 0 0 0 0 0 0 0 0 0 0 0 0 0 0 0 0 0 0
0 0 0 0 0 0 0 0 0 0 0 0 0 0 0 0 0 0 0 0 0 0 0 0 0 0 0 0 0 0 0 0 0 0 0 0 0 0 0 0 0 0 0 0 0 0 0 0 0
0 0 0 0 0 0 0 0 0 0 0 0 0 0 0 0 0 0 0 0 0 0 0 0 0 0 0 0 0 0 0 0 0 0 0 0 0 0 0 0 0 0 0 0 0 0 0 0 0
0 0 0 0 0 0 0 0 0 0 0 0 0 0 0 0 0 0 0 0 0 0 0 0 0 0 0 0 0 0 0 0 0 0 0 0 0 0 0 0 0 0 0 0 0 0 0 0 0
0 0 0 0 0 0 0 0 0 0 0 0 0 0 0 0 0 0 0 0 0 0 0 0 0 0 0 0 0 0 0 0 0 0 0 0 0 0 0 0 0 0 0 0 0 0 0 0 0
0 0 0 0 0 0 0 -0 0 0 0 0 0 0 0 0 0 0 0 0 0 0 0 0 0 0 0 0 0 0 0 0 0 0 0 0 0 0 0 0 0 0 0 0 0 0 0 0 0
Wind_Speed_500mb
5 1 4 9 3 6 8 8 9 13 11 9 13 12 6 23 11 8 34 20 30 28 35 30 29 27 24 20 19 19 20 21 23 25 26 25 24 22 23 27 25 29 23 27 35 41 43 43 46
7 4 4 12 5 5 7 16 8 11 23 15 9 1 4 8 14 25 34 27 39 27 35 31 29 26 23 19 18 19 19 20 22 23 25 24 23 23 24 26 34 32 25 26 32 37 41 42 44
7 8 7 6 5 10 8 4 18 25 15 10 7 2 7 10 14 32 18 37 37 26 34 31 29 28 24 20 20 18 17 18 19 21 22 22 22 22 25 36 33 33 26 22 27 33 38 39 43
9 4 13 4 12 15 12 14 34 21 7 6 4 10 11 15 21 22 29 39 34 24 29 32 30 28 25 22 20 17 15 15 16 18 19 19 20 23 28 34 32 33 24 21 23 30 33 34 39
8 11 7 8 9 9 11 18 23 14 22 18 8 9 12 19 26 22 37 38 33 33 26 29 32 30 27 23 21 17 14 14 14 15 17 18 20 22 25 31 30 27 19 17 22 26 29 31 37
8 9 7 10 9 13 9 13 11 17 18 19 8 7 12 9 19 31 39 37 30 34 27 32 33 30 27 23 21 17 15 13 12 12 14 15 18 20 21 20 18 19 22 21 22 23 25 29 35
7 5 13 16 7 9 8 17 12 14 19 16 5 3 14 14 22 33 38 33 35 31 30 36 36 33 29 26 23 20 17 15 12 11 12 13 15 17 18 19 19 20 21 20 20 21 25 31 36
8 3 13 13 8 6 14 18 5 11 5 20 15 2 10 23 29 32 36 36 31 36 32 32 37 36 34 31 26 22 19 16 14 11 11 13 15 18 19 18 18 19 19 19 20 23 27 33 32
5 5 7 10 12 6 26 12 8 8 9 10 12 4 14 22 34 36 35 39 40 38 35 34 35 38 37 33 30 27 24 21 18 12 11 13 16 19 22 22 21 21 21 21 23 25 27 28 24
7 5 11 15 15 8 20 15 19 5 14 12 15 20 22 25 28 41 45 48 46 46 41 41 40 36 34 33 36 33 32 30 25 18 9 13 16 19 21 23 22 23 23 25 25 26 24 20 16
9 5 11 13 13 12 10 12 18 11 11 26 32 35 31 33 30 39 45 49 44 49 43 46 45 41 42 41 36 36 36 36 34 26 22 14 9 14 18 18 20 21 23 25 25 22 18 15 13
5 14 5 9 5 4 4 4 16 26 28 6 13 22 41 40 40 41 46 48 48 46 46 47 44 44 45 46 39 41 40 42 43 39 33 26 22 20 19 15 19 20 23 22 21 19 17 15 15
6 11 2 5 4 6 8 10 13 33 27 33 33 20 32 38 39 40 43 45 49 54 54 54 51 46 48 50 44 43 44 46 43 43 38 34 30 25 30 24 26 25 23 19 20 18 15 15 15
8 10 9 9 13 10 4 13 19 22 14 38 33 38 33 39 40 41 45 52 55 56 56 60 57 58 58 58 50 46 44 44 46 48 40 41 37 36 33 31 32 27 26 23 21 18 15 16 15
2 7 15 23 16 1 7 14 22 60 37 26 30 42 40 42 44 49 53 55 60 62 60 68 68 74 72 68 62 54 51 49 52 47 43 49 44 44 41 37 39 39 36 32 31 27 23 23 22
7 6 5 3 27 9 7 11 14 8 35 42 37 35 40 48 51 53 56 58 58 64 67 70 74 72 72 71 66 64 64 57 51 53 50 50 51 45 44 47 45 45 42 37 34 33 33 28 26
10 9 12 7 15 9 13 9 3 3 8 22 31 36 43 49 48 52 58 61 64 67 73 79 79 79 74 75 71 65 67 61 58 56 56 56 58 53 55 51 53 52 44 40 39 38 35 33 34
14 9 12 10 13 7 13 26 24 45 41 37 40 43 44 44 45 52 58 58 67 70 76 79 79 81 74 82 79 74 71 70 64 63 64 62 60 61 60 60 57 52 50 48 47 43 44 40 41
17 8 17 13 14 11 14 22 21 38 43 49 56 55 63 65 59 52 58 58 60 72 71 77 84 85 78 85 88 88 88 84 72 68 67 68 66 65 68 66 63 62 57 54 55 49 51 55 51
14 5 15 16 10 7 13 24 35 29 34 63 58 65 67 61 55 52 61 66 63 66 76 81 87 87 82 85 90 92 89 84 75 71 69 73 75 74 71 70 68 66 59 61 64 57 62 60 59
12 12 14 14 15 12 13 15 25 16 35 58 67 75 74 70 61 48 55 71 70 64 73 85 88 88 83 84 88 90 88 84 85 82 79 79 80 81 79 70 72 71 67 66 69 61 69 69 68
12 7 18 8 6 8 4 12 12 24 32 17 47 62 60 53 50 52 54 60 74 63 60 76 84 85 84 83 89 93 95 93 88 79 77 82 89 84 83 79 71 81 80 80 81 60 69 78 76
5 7 7 4 4 12 11 10 13 21 18 24 34 49 43 43 41 37 40 55 52 55 58 61 74 82 84 84 86 87 90 90 81 73 72 76 87 90 86 85 78 82 76 73 82 74 77 81 83
16 10 7 4 4 13 15 15 9 15 11 15 19 28 5 17 23 30 33 37 46 50 53 55 63 74 80 84 84 86 88 85 80 80 72 69 79 90 89 87 84 78 82 75 83 72 90 93 81
5 10 3 3 2 19 12 10 14 4 6 4 14 17 17 15 19 17 22 28 32 42 48 52 58 67 72 79 82 83 86 79 80 79 71 66 70 82 90 86 85 85 74 74 81 81 79 89 87
17 15 11 14 9 12 3 16 11 9 3 11 25 38 15 14 17 26 31 35 37 40 43 46 52 59 66 73 78 79 81 77 79 76 72 66 65 69 73 80 82 85 78 82 74 80 82 84 80
11 17 12 7 6 6 10 21 22 12 15 27 42 38 40 25 25 29 34 35 37 35 34 35 40 47 56 62 67 73 73 74 78 78 72 66 64 68 70 75 83 82 76 79 81 76 77 82 89
8 5 4 5 6 9 17 14 23 10 16 23 18 41 41 31 30 29 26 22 21 20 24 29 35 38 47 54 60 62 65 71 75 77 73 67 64 65 68 73 79 81 77 80 88 90 80 84 89
9 9 9 11 10 9 11 14 9 9 6 8 19 34 27 32 22 20 15 14 13 10 15 17 25 32 36 46 53 55 60 65 70 75 73 69 65 62 63 67 72 77 78 74 71 72 80 84 84
10 19 23 8 7 9 9 37 2 17 17 22 18 13 6 8 15 16 15 14 12 11 11 10 14 19 22 31 40 47 53 61 69 70 67 63 60 60 63 67 69 73 74 83 77 81 80 84 85
Wind_Direction_500mb
180 108 338 319 276 212 117 89 77 102 129 63 39 40 30 50 16 105 138 158 162 176 166 160 153 146 141 130 122 108 98 90 82 80 79 81 89 97 105 99 105 108 85 72 81 84 87 88 89
204 119 328 266 240 253 81 117 144 106 97 104 96 23 281 98 71 134 155 150 150 183 165 163 158 152 149 140 127 114 103 95 88 83 80 81 86 99 106 96 101 100 95 89 88 87 85 86 89
164 146 274 230 292 25 87 117 114 81 112 145 144 133 21 80 106 137 186 149 152 177 169 166 164 160 156 148 139 124 109 99 91 84 82 82 86 93 101 104 97 108 109 95 94 88 84 85 90
94 266 260 283 276 70 46 90 105 120 106 132 62 125 115 120 136 173 166 153 155 158 177 168 170 166 164 160 155 141 127 115 101 91 84 83 86 94 111 110 121 124 130 121 92 88 84 86 93
167 264 262 218 302 93 85 77 135 166 154 161 177 135 117 138 182 171 152 157 159 162 192 180 175 172 171 170 167 157 143 129 113 98 89 88 92 98 115 125 133 146 138 110 99 88 83 87 95
250 263 272 238 218 95 99 136 168 174 144 109 172 295 108 200 181 156 154 161 167 181 186 187 179 178 178 179 177 172 158 146 127 108 93 91 95 102 117 129 135 113 115 112 101 92 90 96 100
253 211 262 291 3 110 162 146 197 206 143 168 126 292 133 197 165 165 162 168 173 194 188 188 184 182 185 186 187 184 174 164 149 126 111 107 103 104 109 110 110 113 114 112 104 100 102 104 107
274 315 255 266 287 318 104 149 187 225 171 150 156 327 159 195 174 172 171 173 183 200 202 193 193 190 190 191 194 194 188 177 163 142 127 119 115 113 111 111 113 112 113 110 107 106 109 115 121
271 306 243 252 247 262 123 170 182 238 123 168 198 191 114 184 184 167 173 181 189 201 204 195 198 196 197 199 198 198 195 191 172 164 145 137 132 125 119 117 116 116 116 115 114 114 117 124 125
232 210 263 20 17 39 134 207 160 178 218 199 196 224 164 199 193 178 181 192 203 199 209 206 202 200 199 205 203 201 199 195 180 181 166 153 148 131 124 118 115 115 118 117 117 118 122 127 122
216 240 19 30 31 43 342 193 258 180 256 213 216 221 215 208 204 192 195 196 214 199 204 210 209 202 198 209 203 203 204 199 187 197 197 198 168 155 146 134 128 127 130 132 136 137 134 136 135
299 245 351 7 26 42 282 300 256 233 238 296 220 241 219 212 214 209 206 202 206 208 205 213 213 210 206 210 206 206 208 207 196 196 203 189 195 188 186 168 155 153 156 160 157 153 149 145 143
230 266 149 249 268 233 289 268 261 271 260 260 260 238 207 221 222 221 217 214 210 208 207 206 210 210 208 216 216 214 212 213 206 203 206 205 201 210 202 205 189 188 191 184 174 171 168 165 156
12 352 260 219 224 215 222 258 239 263 275 245 247 247 220 226 230 223 220 215 213 219 214 212 208 210 209 215 213 213 218 218 214 209 215 210 212 211 212 209 204 208 206 203 189 187 189 184 178
333 291 234 232 215 198 192 276 224 255 252 246 241 241 242 234 226 228 231 223 217 216 220 212 218 212 214 216 218 209 224 228 223 220 216 216 223 221 217 211 207 206 211 210 199 196 192 191 183
225 200 255 345 160 153 165 266 280 250 231 243 244 248 245 245 235 234 236 230 226 218 218 220 223 224 214 219 220 214 225 229 226 224 221 224 224 221 217 221 218 214 217 215 210 208 197 191 179
195 256 215 174 166 122 185 277 109 358 289 264 256 255 252 247 242 242 241 228 229 223 220 224 228 229 220 212 223 222 225 228 231 229 229 227 228 227 223 224 224 223 225 221 215 214 207 200 182
221 212 250 243 187 183 212 256 276 280 275 255 257 259 254 249 243 244 248 241 224 229 222 226 230 232 225 216 220 221 227 230 228 229 231 233 231 229 229 229 231 222 233 225 217 214 203 204 188
286 354 310 318 151 176 227 268 265 271 271 271 263 257 257 257 255 254 245 246 235 227 229 226 227 231 227 220 220 223 226 233 235 230 228 229 232 227 231 231 232 225 230 235 220 216 214 196 197
320 242 278 294 78 190 265 266 279 259 245 249 253 258 259 262 259 249 247 238 239 232 228 225 230 234 231 226 225 229 234 237 239 238 234 231 229 233 230 231 232 234 237 238 214 218 210 205 200
257 246 262 270 324 215 258 269 246 278 247 251 255 260 261 259 258 250 241 239 232 240 231 225 230 235 234 228 227 229 231 235 237 236 233 227 230 233 234 234 231 234 235 241 234 233 214 225 204
249 318 235 252 331 261 97 283 287 299 287 238 248 261 265 265 263 252 241 241 231 241 243 234 229 233 235 230 229 231 234 236 241 242 239 233 228 233 236 236 237 229 236 240 231 233 237 227 213
205 46 74 117 250 310 191 252 257 222 259 257 253 259 261 266 255 241 231 237 242 239 246 241 235 233 235 234 233 234 235 238 241 242 240 237 232 229 231 236 241 234 245 238 233 235 236 231 222
138 91 76 118 178 273 158 215 210 222 234 242 241 268 192 196 207 208 216 226 235 238 245 245 237 234 233 235 234 234 237 239 239 241 241 238 231 228 226 229 232 239 243 240 236 244 241 225 220
179 142 223 299 156 244 132 253 238 218 283 311 292 293 294 270 242 231 223 223 229 237 242 240 235 231 231 233 235 235 238 237 241 244 244 241 233 228 229 225 226 235 239 233 240 241 245 229 223
193 178 174 199 195 263 39 239 255 214 300 301 278 282 258 226 239 253 264 263 256 248 246 244 239 234 232 234 236 236 238 238 240 241 241 241 238 235 234 226 229 234 230 243 244 244 244 230 229
194 213 230 306 63 354 233 272 290 251 222 246 264 261 251 251 250 246 258 256 255 246 247 248 242 234 232 235 238 238 238 236 237 242 242 241 238 234 229 228 229 234 233 236 240 234 237 229 229
166 212 126 252 192 221 258 265 246 322 262 240 239 247 254 242 239 261 247 249 248 245 240 239 243 239 236 237 241 241 239 236 237 241 244 242 239 238 235 229 229 231 234 236 238 235 230 232 229
168 220 236 170 185 182 273 258 177 210 334 241 227 251 261 221 238 230 205 201 213 224 239 246 250 248 239 238 242 245 242 239 239 241 243 245 245 242 236 231 230 230 233 234 225 234 230 230 224
243 225 207 177 242 218 220 263 172 64 29 24 50 81 142 225 219 205 196 189 210 226 246 256 257 262 261 254 254 255 249 245 243 245 246 244 245 242 237 233 235 231 231 228 237 233 229 226 224
Wind_Speed_850mb
5 1 4 9 3 6 8 8 9 13 11 9 13 12 6 23 11 8 34 20 30 28 35 30 29 27 24 20 19 19 20 21 23 25 26 25 24 22 23 27 25 29 23 27 35 41 43 43 46
7 4 4 12 5 5 7 16 8 11 23 15 9 1 4 8 14 25 34 27 39 27 35 31 29 26 23 19 18 19 19 20 22 23 25 24 23 23 24 26 34 32 25 26 32 37 41 42 44
7 8 7 6 5 10 8 4 18 25 15 10 7 2 7 10 14 32 18 37 37 26 34 31 29 28 24 20 20 18 17 18 19 21 22 22 22 22 25 36 33 33 26 22 27 33 38 39 43
9 4 13 4 12 15 12 14 34 21 7 6 4 10 11 15 21 22 29 39 34 24 29 32 30 28 25 22 20 17 15 15 16 18 19 19 20 23 28 34 32 33 24 21 23 30 33 34 39
8 11 7 8 9 9 11 18 23 14 22 18 8 9 12 19 26 22 37 38 33 33 26 29 32 30 27 23 21 17 14 14 14 15 17 18 20 22 25 31 30 27 19 17 22 26 29 31 37
8 9 7 10 9 13 9 13 11 17 18 19 8 7 12 9 19 31 39 37 30 34 27 32 33 30 27 23 21 17 15 13 12 12 14 15 18 20 21 20 18 19 22 21 22 23 25 29 35
7 5 13 16 7 9 8 17 12 14 19 16 5 3 14 14 22 33 38 33 35 31 30 36 36 33 29 26 23 20 17 15 12 11 12 13 15 17 18 19 19 20 21 20 20 21 25 31 36
8 3 13 13 8 6 14 18 5 11 5 20 15 2 10 23 29 32 36 36 31 36 32 32 37 36 34 31 26 22 19 16 14 11 11 13 15 18 19 18 18 19 19 19 20 23 27 33 32
5 5 7 10 12 6 26 12 8 8 9 10 12 4 14 22 34 36 35 39 40 38 35 34 35 38 37 33 30 27 24 21 18 12 11 13 16 19 22 22 21 21 21 21 23 25 27 28 24
7 5 11 15 15 8 20 15 19 5 14 12 15 20 22 25 28 41 45 48 46 46 41 41 40 36 34 33 36 33 32 30 25 18 9 13 16 19 21 23 22 23 23 25 25 26 24 20 16
9 5 11 13 13 12 10 12 18 11 11 26 32 35 31 33 30 39 45 49 44 49 43 46 45 41 42 41 36 36 36 36 34 26 22 14 9 14 18 18 20 21 23 25 25 22 18 15 13
5 14 5 9 5 4 4 4 16 26 28 6 13 22 41 40 40 41 46 48 48 46 46 47 44 44 45 46 39 41 40 42 43 39 33 26 22 20 19 15 19 20 23 22 21 19 17 15 15
6 11 2 5 4 6 8 10 13 33 27 33 33 20 32 38 39 40 43 45 49 54 54 54 51 46 48 50 44 43 44 46 43 43 38 34 30 25 30 24 26 25 23 19 20 18 15 15 15
8 10 9 9 13 10 4 13 19 22 14 38 33 38 33 39 40 41 45 52 55 56 56 60 57 58 58 58 50 46 44 44 46 48 40 41 37 36 33 31 32 27 26 23 21 18 15 16 15
2 7 15 23 16 1 7 14 22 60 37 26 30 42 40 42 44 49 53 55 60 62 60 68 68 74 72 68 62 54 51 49 52 47 43 49 44 44 41 37 39 39 36 32 31 27 23 23 22
7 6 5 3 27 9 7 11 14 8 35 42 37 35 40 48 51 53 56 58 58 64 67 70 74 72 72 71 66 64 64 57 51 53 50 50 51 45 44 47 45 45 42 37 34 33 33 28 26
10 9 12 7 15 9 13 9 3 3 8 22 31 36 43 49 48 52 58 61 64 67 73 79 79 79 74 75 71 65 67 61 58 56 56 56 58 53 55 51 53 52 44 40 39 38 35 33 34
14 9 12 10 13 7 13 26 24 45 41 37 40 43 44 44 45 52 58 58 67 70 76 79 79 81 74 82 79 74 71 70 64 63 64 62 60 61 60 60 57 52 50 48 47 43 44 40 41
17 8 17 13 14 11 14 22 21 38 43 49 56 55 63 65 59 52 58 58 60 72 71 77 84 85 78 85 88 88 88 84 72 68 67 68 66 65 68 66 63 62 57 54 55 49 51 55 51
14 5 15 16 10 7 13 24 35 29 34 63 58 65 67 61 55 52 61 66 63 66 76 81 87 87 82 85 90 92 89 84 75 71 69 73 75 74 71 70 68 66 59 61 64 57 62 60 59
12 12 14 14 15 12 13 15 25 16 35 58 67 75 74 70 61 48 55 71 70 64 73 85 88 88 83 84 88 90 88 84 85 82 79 79 80 81 79 70 72 71 67 66 69 61 69 69 68
12 7 18 8 6 8 4 12 12 24 32 17 47 62 60 53 50 52 54 60 74 63 60 76 84 85 84 83 89 93 95 93 88 79 77 82 89 84 83 79 71 81 80 80 81 60 69 78 76
5 7 7 4 4 12 11 10 13 21 18 24 34 49 43 43 41 37 40 55 52 55 58 61 74 82 84 84 86 87 90 90 81 73 72 76 87 90 86 85 78 82 76 73 82 74 77 81 83
16 10 7 4 4 13 15 15 9 15 11 15 19 28 5 17 23 30 33 37 46 50 53 55 63 74 80 84 84 86 88 85 80 80 72 69 79 90 89 87 84 78 82 75 83 72 90 93 81
5 10 3 3 2 19 12 10 14 4 6 4 14 17 17 15 19 17 22 28 32 42 48 52 58 67 72 79 82 83 86 79 80 79 71 66 70 82 90 86 85 85 74 74 81 81 79 89 87
17 15 11 14 9 12 3 16 11 9 3 11 25 38 15 14 17 26 31 35 37 40 43 46 52 59 66 73 78 79 81 77 79 76 72 66 65 69 73 80 82 85 78 82 74 80 82 84 80
11 17 12 7 6 6 10 21 22 12 15 27 42 38 40 25 25 29 34 35 37 35 34 35 40 47 56 62 67 73 73 74 78 78 72 66 64 68 70 75 83 82 76 79 81 76 77 82 89
8 5 4 5 6 9 17 14 23 10 16 23 18 41 41 31 30 29 26 22 21 20 24 29 35 38 47 54 60 62 65 71 75 77 73 67 64 65 68 73 79 81 77 80 88 90 80 84 89
9 9 9 11 10 9 11 14 9 9 6 8 19 34 27 32 22 20 15 14 13 10 15 17 25 32 36 46 53 55 60 65 70 75 73 69 65 62 63 67 72 77 78 74 71 72 80 84 84
10 19 23 8 7 9 9 37 2 17 17 22 18 13 6 8 15 16 15 14 12 11 11 10 14 19 22 31 40 47 53 61 69 70 67 63 60 60 63 67 69 73 74 83 77 81 80 84 85
Wind_Direction_850mb
180 108 338 319 276 212 117 89 77 102 129 63 39 40 30 50 16 105 138 158 162 176 166 160 153 146 141 130 122 108 98 90 82 80 79 81 89 97 105 99 105 108 85 72 81 84 87 88 89
204 119 328 266 240 253 81 117 144 106 97 104 96 23 281 98 71 134 155 150 150 183 165 163 158 152 149 140 127 114 103 95 88 83 80 81 86 99 106 96 101 100 95 89 88 87 85 86 89
164 146 274 230 292 25 87 117 114 81 112 145 144 133 21 80 106 137 186 149 152 177 169 166 164 160 156 148 139 124 109 99 91 84 82 82 86 93 101 104 97 108 109 95 94 88 84 85 90
94 266 260 283 276 70 46 90 105 120 106 132 62 125 115 120 136 173 166 153 155 158 177 168 170 166 164 160 155 141 127 115 101 91 84 83 86 94 111 110 121 124 130 121 92 88 84 86 93
167 264 262 218 302 93 85 77 135 166 154 161 177 135 117 138 182 171 152 157 159 162 192 180 175 172 171 170 167 157 143 129 113 98 89 88 92 98 115 125 133 146 138 110 99 88 83 87 95
250 263 272 238 218 95 99 136 168 174 144 109 172 295 108 200 181 156 154 161 167 181 186 187 179 178 178 179 177 172 158 146 127 108 93 91 95 102 117 129 135 113 115 112 101 92 90 96 100
253 211 262 291 3 110 162 146 197 206 143 168 126 292 133 197 165 165 162 168 173 194 188 188 184 182 185 186 187 184 174 164 149 126 111 107 103 104 109 110 110 113 114 112 104 100 102 104 107
274 315 255 266 287 318 104 149 187 225 171 150 156 327 159 195 174 172 171 173 183 200 202 193 193 190 190 191 194 194 188 177 163 142 127 119 115 113 111 111 113 112 113 110 107 106 109 115 121
271 306 243 252 247 262 123 170 182 238 123 168 198 191 114 184 184 167 173 181 189 201 204 195 198 196 197 199 198 198 195 191 172 164 145 137 132 125 119 117 116 116 116 115 114 114 117 124 125
232 210 263 20 17 39 134 207 160 178 218 199 196 224 164 199 193 178 181 192 203 199 209 206 202 200 199 205 203 201 199 195 180 181 166 153 148 131 124 118 115 115 118 117 117 118 122 127 122
216 240 19 30 31 43 342 193 258 180 256 213 216 221 215 208 204 192 195 196 214 199 204 210 209 202 198 209 203 203 204 199 187 197 197 198 168 155 146 134 128 127 130 132 136 137 134 136 135
299 245 351 7 26 42 282 300 256 233 238 296 220 241 219 212 214 209 206 202 206 208 205 213 213 210 206 210 206 206 208 207 196 196 203 189 195 188 186 168 155 153 156 160 157 153 149 145 143
230 266 149 249 268 233 289 268 261 271 260 260 260 238 207 221 222 221 217 214 210 208 207 206 210 210 208 216 216 214 212 213 206 203 206 205 201 210 202 205 189 188 191 184 174 171 168 165 156
12 352 260 219 224 215 222 258 239 263 275 245 247 247 220 226 230 223 220 215 213 219 214 212 208 210 209 215 213 213 218 218 214 209 215 210 212 211 212 209 204 208 206 203 189 187 189 184 178
333 291 234 232 215 198 192 276 224 255 252 246 241 241 242 234 226 228 231 223 217 216 220 212 218 212 214 216 218 209 224 228 223 220 216 216 223 221 217 211 207 206 211 210 199 196 192 191 183
225 200 255 345 160 153 165 266 280 250 231 243 244 248 245 245 235 234 236 230 226 218 218 220 223 224 214 219 220 214 225 229 226 224 221 224 224 221 217 221 218 214 217 215 210 208 197 191 179
195 256 215 174 166 122 185 277 109 358 289 264 256 255 252 247 242 242 241 228 229 223 220 224 228 229 220 212 223 222 225 228 231 229 229 227 228 227 223 224 224 223 225 221 215 214 207 200 182
221 212 250 243 187 183 212 256 276 280 275 255 257 259 254 249 243 244 248 241 224 229 222 226 230 232 225 216 220 221 227 230 228 229 231 233 231 229 229 229 231 222 233 225 217 214 203 204 188
286 354 310 318 151 176 227 268 265 271 271 271 263 257 257 257 255 254 245 246 235 227 229 226 227 231 227 220 220 223 226 233 235 230 228 229 232 227 231 231 232 225 230 235 220 216 214 196 197
320 242 278 294 78 190 265 266 279 259 245 249 253 258 259 262 259 249 247 238 239 232 228 225 230 234 231 226 225 229 234 237 239 238 234 231 229 233 230 231 232 234 237 238 214 218 210 205 200
257 246 262 270 324 215 258 269 246 278 247 251 255 260 261 259 258 250 241 239 232 240 231 225 230 235 234 228 227 229 231 235 237 236 233 227 230 233 234 234 231 234 235 241 234 233 214 225 204
249 318 235 252 331 261 97 283 287 299 287 238 248 261 265 265 263 252 241 241 231 241 243 234 229 233 235 230 229 231 234 236 241 242 239 233 228 233 236 236 237 229 236 240 231 233 237 227 213
205 46 74 117 250 310 191 252 257 222 259 257 253 259 261 266 255 241 231 237 242 239 246 241 235 233 235 234 233 234 235 238 241 242 240 237 232 229 231 236 241 234 245 238 233 235 236 231 222
138 91 76 118 178 273 158 215 210 222 234 242 241 268 192 196 207 208 216 226 235 238 245 245 237 234 233 235 234 234 237 239 239 241 241 238 231 228 226 229 232 239 243 240 236 244 241 225 220
179 142 223 299 156 244 132 253 238 218 283 311 292 293 294 270 242 231 223 223 229 237 242 240 235 231 231 233 235 235 238 237 241 244 244 241 233 228 229 225 226 235 239 233 240 241 245 229 223
193 178 174 199 195 263 39 239 255 214 300 301 278 282 258 226 239 253 264 263 256 248 246 244 239 234 232 234 236 236 238 238 240 241 241 241 238 235 234 226 229 234 230 243 244 244 244 230 229
194 213 230 306 63 354 233 272 290 251 222 246 264 261 251 251 250 246 258 256 255 246 247 248 242 234 232 235 238 238 238 236 237 242 242 241 238 234 229 228 229 234 233 236 240 234 237 229 229
166 212 126 252 192 221 258 265 246 322 262 240 239 247 254 242 239 261 247 249 248 245 240 239 243 239 236 237 241 241 239 236 237 241 244 242 239 238 235 229 229 231 234 236 238 235 230 232 229
168 220 236 170 185 182 273 258 177 210 334 241 227 251 261 221 238 230 205 201 213 224 239 246 250 248 239 238 242 245 242 239 239 241 243 245 245 242 236 231 230 230 233 234 225 234 230 230 224
243 225 207 177 242 218 220 263 172 64 29 24 50 81 142 225 219 205 196 189 210 226 246 256 257 262 261 254 254 255 249 245 243 245 246 244 245 242 237 233 235 231 231 228 237 233 229 226 224